Theta_e
322 322 323 324 326 326 328 332 335 338 339 341 342 345 346 346 346 346 346 346 346 345 345 345 344 340 337 335 335 334 333 329 327 325 323 322 321 320 320 320 320 320 319 319 319 320 321 325 322 322 321 322 321 319 320 321 321 320 320 321 322 321 320
325 324 324 325 326 326 327 332 336 338 340 341 342 344 345 346 347 346 346 346 345 344 345 345 344 341 337 336 335 334 332 329 328 327 325 325 325 323 322 321 321 321 319 319 320 322 323 323 322 322 323 321 318 319 321 322 321 321 320 320 319 319 319
327 326 325 326 327 327 329 331 336 339 341 342 342 343 344 346 347 347 346 344 344 345 345 344 344 340 337 336 335 333 331 329 327 325 324 324 324 324 323 323 322 322 321 320 321 322 324 322 322 320 319 319 319 320 320 321 322 320 320 319 319 318 319
329 330 330 331 331 331 331 331 337 340 342 343 343 343 344 346 348 348 347 345 344 344 343 343 343 340 337 335 334 332 330 329 327 325 325 325 324 324 323 324 324 322 319 320 322 323 322 321 321 323 327 319 320 320 321 321 321 320 320 320 320 319 320
332 332 332 332 332 333 334 336 338 340 341 343 345 346 345 346 349 349 348 346 345 343 343 343 344 339 336 334 334 333 331 329 327 327 325 325 324 324 323 323 323 322 322 321 323 324 322 320 321 322 319 319 318 320 321 320 321 322 321 320 321 323 320
332 331 331 332 333 334 334 336 337 339 340 341 342 343 345 346 347 345 344 344 341 340 338 338 337 336 334 334 333 332 331 330 328 327 325 324 323 324 323 322 322 322 322 321 323 320 320 320 321 321 319 318 318 317 318 320 320 320 320 320 319 320 319
332 332 332 333 334 335 335 335 336 337 339 340 340 341 341 339 337 338 339 340 341 339 338 336 336 335 334 334 333 332 331 328 325 325 326 325 324 325 323 323 326 322 321 322 320 319 319 319 320 319 320 319 322 318 320 320 319 321 320 322 320 320 320
333 332 333 333 334 335 335 335 335 335 336 337 337 337 336 336 337 337 338 338 338 338 336 336 336 336 335 334 333 332 328 324 325 325 325 324 324 324 322 324 323 321 322 319 319 319 319 319 319 320 319 318 320 319 319 319 320 321 321 321 319 320 320
334 333 333 333 333 333 334 334 334 334 334 334 334 335 335 335 336 336 336 335 337 336 336 337 337 335 334 333 332 329 326 325 324 324 324 323 324 324 324 323 321 322 320 319 319 320 319 318 319 319 319 320 318 319 319 319 319 320 319 319 319 319 320
332 332 333 333 333 333 333 333 334 333 333 333 333 334 335 335 335 336 336 336 336 336 336 336 336 335 334 332 328 326 325 323 324 323 323 323 323 324 323 322 321 322 320 320 320 319 320 319 319 319 319 320 320 318 319 319 320 320 320 319 320 320 318
331 331 332 332 332 331 332 332 331 332 333 332 332 334 336 335 335 336 336 337 337 337 336 335 335 333 331 329 327 326 325 324 324 323 324 323 324 323 322 321 321 321 319 319 319 319 319 322 320 319 318 319 319 318 318 319 319 320 320 321 320 320 318
328 329 330 331 331 331 330 330 331 331 332 333 333 334 335 335 335 336 337 336 337 335 333 333 332 330 329 328 326 325 324 323 324 324 324 324 324 322 321 321 321 320 320 320 318 319 319 319 319 320 318 318 318 318 318 320 319 319 321 322 322 322 320
329 329 329 329 330 330 330 330 329 331 332 333 334 335 335 335 335 335 335 333 334 333 332 331 330 329 328 328 326 324 324 325 325 325 325 324 322 322 321 321 320 319 319 320 319 318 318 318 318 323 318 318 317 318 320 320 320 321 320 321 321 322 321
330 329 329 330 329 329 329 329 329 330 332 333 334 335 335 336 336 334 332 331 332 332 330 330 329 328 327 326 325 325 325 325 326 326 324 323 322 322 321 320 319 319 320 320 319 318 318 317 318 321 320 318 320 322 324 322 321 321 320 321 322 323 322
328 328 329 328 329 329 328 328 328 330 331 332 333 333 334 334 334 333 332 331 331 331 330 330 328 327 326 326 324 324 325 325 325 324 324 323 321 321 321 320 319 320 320 320 319 320 318 318 319 321 319 321 321 323 324 322 322 323 321 321 321 321 323
329 328 328 327 327 328 328 328 328 329 331 331 332 332 333 333 333 332 330 330 330 329 329 328 327 326 325 324 324 324 325 324 324 322 321 320 320 320 320 319 320 319 319 318 319 320 320 320 321 322 320 320 321 321 322 322 321 329 331 329 324 321 322
329 329 329 329 328 327 327 328 328 329 330 331 331 332 332 333 333 332 331 329 329 328 328 327 326 325 325 324 324 324 323 322 321 321 320 320 320 320 319 319 320 319 318 319 320 321 325 321 320 321 321 321 321 321 321 322 323 331 337 335 332 325 322
329 329 330 330 329 327 325 325 326 328 329 331 332 332 332 332 333 332 330 329 328 327 328 327 326 325 324 323 323 322 321 320 319 319 319 320 319 319 319 319 318 318 318 319 321 324 324 321 321 320 321 322 321 321 323 324 331 335 338 339 335 333 325
329 330 330 331 331 330 326 325 326 328 330 331 332 332 332 333 332 330 329 328 327 327 327 326 325 323 322 322 321 320 319 319 319 318 318 319 319 319 319 318 317 317 318 319 322 323 321 321 321 321 322 323 322 323 326 326 334 334 337 336 333 335 330
329 331 332 333 332 330 327 327 327 328 330 332 333 333 334 334 332 331 330 328 327 326 325 324 322 321 321 320 320 319 319 318 318 318 318 318 318 318 318 317 317 317 319 322 323 321 321 321 321 321 322 322 324 326 328 328 335 332 335 335 335 336 333
329 331 332 333 332 331 329 327 327 329 330 331 332 333 332 332 332 330 329 327 325 325 324 323 321 320 320 319 319 318 318 318 318 318 318 318 318 318 317 317 316 317 320 321 320 320 321 322 321 322 325 325 324 325 326 326 334 331 334 334 334 333 337
330 331 332 333 333 332 329 328 327 329 330 333 332 332 331 330 330 329 327 326 324 323 323 321 320 319 319 318 318 318 318 318 318 318 318 317 317 317 316 316 316 317 320 320 319 320 321 321 322 324 324 323 323 325 324 324 329 332 333 332 332 332 332
331 332 333 335 335 333 331 330 328 330 332 332 332 331 330 330 329 328 326 324 323 323 322 320 319 319 320 318 318 319 318 318 318 318 317 317 317 316 316 315 315 317 322 318 318 318 320 321 322 324 323 323 323 323 324 323 328 328 330 330 330 332 329
332 333 334 336 336 332 330 329 330 332 332 331 331 330 329 329 328 326 325 324 323 322 320 320 319 320 319 318 319 319 319 319 319 318 318 317 316 316 316 316 317 318 323 318 318 318 319 320 321 323 324 325 323 323 322 323 327 328 327 327 329 332 327
331 333 335 337 335 331 329 329 330 330 331 331 329 328 328 328 327 325 323 323 322 322 320 319 320 320 319 319 319 319 320 319 319 318 317 317 317 316 316 316 317 320 321 319 319 319 318 323 320 322 322 325 325 330 329 324 327 326 325 326 327 331 330
331 331 334 337 335 332 330 331 331 329 329 329 328 328 327 327 326 325 323 322 322 321 321 321 321 321 320 320 320 320 320 320 320 319 318 317 317 317 317 318 320 320 318 318 320 322 323 328 322 322 323 324 329 328 332 330 328 331 325 324 325 329 330
333 334 335 335 333 334 330 330 330 328 328 328 328 328 327 326 325 324 323 322 321 321 322 322 322 321 321 320 320 320 320 320 319 319 319 318 317 318 320 320 319 319 318 318 319 320 321 322 324 325 324 324 324 324 323 327 328 331 325 323 324 327 332
334 334 334 335 334 331 329 330 329 329 329 329 328 328 327 326 325 324 323 322 321 322 323 322 322 321 321 320 320 320 320 320 320 320 318 319 319 319 318 319 319 319 318 318 318 318 319 322 328 324 325 325 324 327 325 328 333 332 330 325 322 322 327
332 332 331 331 330 331 330 328 328 328 328 329 328 328 327 326 325 324 323 321 322 322 323 323 322 321 321 320 320 322 321 321 322 321 319 320 321 319 318 318 318 319 318 317 317 317 318 320 321 322 322 322 322 322 322 323 326 331 333 330 324 321 322
332 332 332 332 331 331 331 329 329 328 329 329 328 327 326 326 325 324 323 322 322 323 324 323 322 321 321 322 320 321 322 322 323 321 321 322 321 320 318 317 317 318 317 316 317 316 316 317 319 319 320 321 321 322 323 323 323 328 330 331 326 322 319
331 331 331 331 330 332 331 329 329 329 329 329 329 328 327 326 325 325 323 322 324 324 323 322 322 321 321 320 320 321 321 322 321 320 321 321 321 319 319 318 317 317 316 316 315 315 316 316 319 319 319 319 321 321 322 322 322 322 326 329 331 326 321
332 332 332 331 331 332 331 330 330 329 328 329 329 328 328 326 326 325 323 324 325 324 323 322 322 322 321 320 320 320 321 320 319 320 321 321 320 320 319 319 319 318 315 316 316 316 315 316 319 319 319 319 319 320 321 321 321 321 322 326 327 329 325
332 332 331 330 331 332 330 330 329 329 329 328 329 328 327 327 326 326 325 325 325 323 323 323 322 323 321 320 320 320 320 320 319 319 320 320 319 320 321 320 318 320 320 317 315 315 316 316 320 321 320 320 318 319 320 320 320 321 321 322 323 323 326
331 331 331 332 332 331 331 330 329 328 329 328 329 328 328 327 326 326 326 326 325 323 323 324 323 322 320 320 320 321 320 320 325 323 319 320 319 318 318 319 318 318 319 318 316 315 316 317 319 320 320 319 319 319 319 319 319 320 319 320 322 323 324
332 332 331 331 331 331 330 330 329 328 329 329 329 329 329 328 327 327 327 327 326 324 323 323 325 323 320 321 321 320 323 322 325 322 321 320 320 319 319 319 318 318 318 319 319 318 318 317 318 321 319 319 319 318 317 318 318 319 319 326 319 325 324
332 332 332 332 332 331 331 332 329 329 329 329 330 330 329 330 328 328 328 328 326 325 324 324 324 321 321 321 321 321 323 322 324 323 321 320 320 319 319 323 320 317 319 319 325 323 317 315 319 320 320 318 319 320 318 317 318 318 311 308 307 306 307
332 332 332 333 331 330 330 330 331 330 330 329 330 330 331 330 329 328 329 329 327 325 325 325 324 322 321 323 322 323 324 322 323 323 321 321 320 319 320 319 321 309 310 316 324 319 310 306 307 310 316 322 319 320 317 317 313 308 306 305 304 303 302
334 334 333 333 332 331 330 330 330 330 330 329 330 331 332 331 330 329 329 330 328 326 326 325 324 322 322 322 323 327 327 323 324 324 322 320 319 319 319 318 318 320 310 305 309 311 308 305 304 303 305 308 314 322 322 315 308 305 305 304 304 303 301
Wind_Speed
3 3 4 3 3 5 7 7 7 8 8 9 10 11 12 11 12 10 12 14 18 18 17 18 19 19 21 18 14 9 7 8 9 10 10 7 6 7 8 6 8 8 7 7 6 6 5 5 5 5 5 4 5 4 5 4 4 4 5 5 5 5 4
6 5 4 3 3 3 3 2 1 4 6 8 9 12 11 13 12 13 14 17 19 21 21 20 20 18 17 16 16 15 10 10 10 9 9 9 7 5 6 6 8 9 7 6 6 5 5 5 6 5 5 4 5 4 4 5 5 4 4 4 5 4 4
5 5 4 3 2 2 1 3 4 6 8 9 10 11 13 13 12 13 13 14 16 14 13 17 19 18 16 14 14 16 17 12 11 12 13 11 11 10 7 6 8 9 8 7 6 6 4 5 5 5 5 5 4 4 4 5 5 5 5 5 4 4 4
6 6 5 4 3 2 2 3 4 4 4 6 8 10 9 5 2 3 5 3 8 8 11 16 17 15 15 14 12 13 15 14 13 12 11 11 11 10 9 4 5 8 7 7 6 6 4 5 5 4 5 5 4 3 3 5 4 4 5 5 4 3 3
7 7 7 7 8 8 11 8 6 4 4 3 4 2 1 1 2 3 2 3 3 5 9 14 15 17 18 17 13 11 13 14 11 10 11 11 10 11 10 6 5 7 6 6 7 7 6 5 5 5 4 4 4 3 3 3 4 4 4 4 4 3 3
6 6 7 7 7 8 10 9 9 8 6 6 5 5 4 3 4 5 6 6 5 2 3 9 8 15 18 9 9 10 11 12 12 11 11 11 10 10 9 8 5 6 7 7 6 7 6 6 5 4 5 4 4 3 2 3 3 3 2 3 4 2 3
6 6 7 6 7 9 10 9 9 8 7 7 7 7 6 5 4 4 7 7 5 2 5 1 22 22 17 16 16 15 15 14 14 15 12 12 11 10 9 8 6 7 6 5 7 7 7 6 5 5 5 5 3 4 3 3 2 0 0 1 1 2 2
5 6 7 6 8 10 9 9 8 8 6 6 7 6 5 3 6 9 8 6 4 8 5 6 12 1 15 18 16 16 15 14 13 12 11 13 11 10 10 9 8 7 6 8 7 7 7 6 5 5 5 5 5 5 4 3 4 2 2 2 1 1 2
4 5 6 6 7 9 9 8 7 6 6 6 6 4 4 4 5 8 9 8 7 6 6 5 3 4 9 9 12 14 14 15 13 13 14 12 9 8 8 8 8 7 7 8 7 6 7 6 6 5 5 5 4 4 4 2 2 2 3 2 2 3 4
5 6 6 6 6 6 7 7 7 5 4 4 2 2 3 3 4 6 7 9 6 5 6 7 7 8 9 12 12 12 14 15 14 14 13 12 10 9 9 8 8 7 8 7 6 7 5 6 6 5 5 4 4 4 4 2 2 1 1 2 2 3 4
3 5 6 6 6 6 7 7 7 6 3 2 2 2 3 3 3 5 7 6 5 5 7 8 8 10 10 14 15 13 12 13 13 13 11 10 9 10 8 7 8 7 8 8 7 6 6 4 5 5 5 4 4 3 4 3 4 3 1 0 2 2 2
3 3 5 6 6 7 8 7 5 5 4 3 2 2 3 3 4 6 7 9 7 7 7 9 9 10 12 12 14 13 13 12 11 11 11 10 9 9 8 7 8 8 7 8 8 5 5 6 4 5 6 4 3 3 3 1 3 3 3 3 3 3 2
2 3 4 6 6 6 5 7 6 5 4 4 4 3 3 3 5 7 9 9 8 7 9 9 11 11 12 13 13 12 12 12 12 11 11 9 9 7 7 8 8 8 8 7 7 7 6 5 5 4 5 4 3 3 4 5 4 3 3 4 3 3 3
1 2 4 5 6 5 5 6 6 6 5 5 4 3 2 4 5 7 8 9 8 8 8 8 11 12 12 13 13 13 12 11 10 10 9 8 7 6 8 7 7 8 7 6 7 6 7 7 6 4 3 3 3 3 3 3 3 3 3 2 3 3 3
1 2 4 5 5 4 4 5 6 5 5 5 5 5 4 3 6 7 8 7 8 8 9 10 11 12 12 12 13 11 10 9 7 7 8 7 6 7 7 7 7 7 7 6 6 5 5 6 6 5 4 4 4 3 2 3 3 3 3 3 3 2 3
3 3 3 5 4 3 3 4 5 5 5 5 5 6 4 5 7 7 7 7 8 9 8 9 11 12 12 13 13 12 11 9 7 7 7 7 8 7 7 7 7 7 6 6 5 5 5 6 5 5 5 5 5 3 3 3 2 3 8 6 5 4 3
5 5 5 5 4 1 2 4 6 6 6 6 6 6 5 5 7 7 7 7 8 8 7 9 10 10 12 12 10 11 10 8 8 7 7 7 7 7 7 7 7 6 6 6 5 6 4 5 5 5 5 6 6 5 4 3 3 6 5 9 10 6 4
7 7 7 6 4 1 4 4 5 5 6 6 6 6 5 6 6 7 7 7 7 7 7 8 9 10 10 11 10 10 9 8 8 8 7 7 8 8 7 7 7 7 6 6 6 4 4 5 5 5 5 4 3 4 3 4 5 5 5 6 7 7 5
8 8 8 6 5 2 4 5 5 5 6 6 5 5 5 5 6 7 7 7 6 7 7 8 8 9 9 10 10 9 8 8 9 8 8 8 8 7 8 7 7 7 7 7 5 5 5 5 5 5 4 4 5 4 4 4 6 6 6 4 3 5 6
8 7 6 6 4 3 5 5 5 5 5 6 6 5 4 5 6 7 6 6 6 7 7 8 7 8 8 8 8 8 8 8 9 9 8 7 7 8 8 8 7 7 6 6 5 5 5 5 5 5 5 4 5 5 5 5 7 7 6 4 3 4 5
9 9 8 7 6 4 5 7 7 7 7 7 7 6 6 6 7 6 6 6 7 6 7 7 8 7 7 8 7 7 7 8 8 8 8 7 7 7 7 7 6 6 6 6 6 6 6 5 5 4 4 4 4 4 4 4 4 5 4 4 4 3 4
9 8 9 9 8 5 7 8 9 8 8 7 7 6 5 6 6 7 6 5 7 6 7 7 8 8 7 8 7 7 7 8 8 8 8 8 7 8 7 7 7 7 5 5 5 4 5 3 3 4 4 4 4 4 4 4 3 3 4 4 4 5 2
9 9 9 7 5 5 6 7 8 8 8 8 8 8 7 6 6 7 7 6 6 7 7 7 8 7 7 7 7 7 7 8 9 8 8 8 8 7 7 7 6 5 5 6 5 6 6 6 5 4 4 4 3 4 4 4 4 5 6 6 6 3 2
5 5 5 4 5 7 8 8 8 7 8 9 8 8 8 7 6 7 7 7 6 7 7 7 7 7 8 7 7 7 7 8 9 9 8 8 8 8 6 5 5 6 5 7 6 5 6 4 4 3 4 4 5 4 5 5 5 6 6 7 6 6 4
6 6 6 5 6 8 9 8 9 9 8 8 9 8 7 8 8 8 7 7 7 6 7 7 7 7 8 7 7 7 7 7 8 9 9 8 7 7 7 7 7 5 5 5 6 5 5 3 4 4 3 4 5 6 6 5 4 5 6 7 7 5 4
7 6 6 4 4 6 8 9 10 9 9 9 8 9 9 8 8 8 7 6 7 7 7 7 7 6 6 7 7 6 6 6 7 8 8 8 7 6 7 6 6 6 6 5 5 5 5 5 4 5 4 3 4 3 4 5 5 4 6 6 6 7 4
3 5 7 7 7 8 8 7 8 9 10 7 9 8 8 8 8 8 7 6 6 7 6 6 6 6 6 6 7 6 7 6 7 8 6 7 8 7 5 6 6 6 6 6 5 6 5 5 4 3 3 3 3 3 1 2 3 4 5 7 7 6 4
6 6 4 5 7 8 7 7 7 8 7 7 9 9 8 8 8 7 7 7 7 6 5 6 6 6 7 7 7 6 6 6 5 6 7 5 6 6 6 4 5 6 6 6 6 6 5 4 4 4 4 3 2 1 2 2 2 3 2 3 5 5 5
8 8 9 9 8 7 8 8 8 8 9 8 9 8 7 9 9 7 7 7 6 5 6 6 6 7 7 7 7 6 6 6 7 6 5 6 7 8 7 5 5 5 5 6 6 6 5 5 4 4 3 2 1 1 2 2 3 3 3 4 3 6 6
6 6 7 6 7 9 8 7 7 7 8 8 7 7 7 8 8 7 7 7 5 6 6 6 6 6 7 6 6 6 6 6 6 5 5 6 6 6 7 6 5 5 5 5 6 6 5 4 4 4 3 3 3 3 3 3 2 3 4 4 5 6 8
7 8 8 9 8 7 7 8 9 8 7 7 8 7 6 6 9 8 8 6 6 7 7 7 7 7 6 6 6 6 6 5 5 6 5 5 6 6 5 5 5 5 3 4 4 5 6 5 4 5 4 4 4 4 4 4 3 3 4 6 6 7 8
6 6 6 7 7 7 7 6 7 7 8 7 7 6 6 5 7 9 7 6 6 6 7 8 7 6 6 6 6 6 6 6 5 5 5 6 5 6 6 6 6 5 5 4 5 4 5 5 4 4 4 4 4 5 5 4 3 4 5 4 5 5 6
6 8 9 8 7 8 7 7 7 7 7 7 6 6 5 6 5 6 7 7 7 7 7 7 7 7 6 6 6 6 6 7 6 5 4 4 4 3 4 4 5 5 5 5 5 5 5 4 5 5 4 5 5 5 4 5 4 5 5 5 5 4 4
8 7 5 6 7 7 6 7 7 7 7 6 6 6 6 5 6 6 7 6 7 7 7 7 7 7 7 7 6 6 5 6 7 7 5 4 5 4 3 3 4 5 6 6 6 6 6 5 5 5 5 5 5 4 4 5 5 5 6 6 5 5 4
7 7 7 8 7 8 8 7 7 7 7 6 6 6 6 6 6 7 8 7 7 8 8 7 7 6 7 6 6 5 5 5 5 5 5 5 4 4 5 6 6 6 5 5 6 7 7 6 6 6 6 6 6 6 5 5 6 7 5 6 6 6 5
6 7 7 7 7 7 6 6 8 7 6 6 6 6 6 7 6 7 7 7 7 8 8 7 6 6 6 6 6 5 4 4 4 5 5 5 5 5 4 4 5 5 6 6 8 10 8 7 7 7 6 6 6 6 7 7 8 8 8 9 8 8 7
9 7 8 8 8 7 6 6 6 7 7 6 6 6 6 6 7 7 7 7 7 8 8 8 6 5 5 5 4 6 5 5 5 5 5 5 5 5 5 4 4 6 8 7 5 8 11 10 11 8 6 6 6 7 11 12 12 12 13 12 12 12 10
7 8 8 8 8 8 8 7 7 8 8 6 6 6 6 6 6 7 7 7 7 8 7 8 7 7 6 6 6 7 7 6 5 5 5 5 5 5 5 5 5 5 6 8 9 8 8 10 11 12 11 11 10 8 6 10 13 14 14 14 13 10 8
Wind_Direction
348 304 286 302 256 217 209 201 182 174 171 176 189 196 198 195 192 180 182 183 190 190 188 183 183 179 177 172 161 156 165 160 157 149 147 144 145 138 137 145 129 123 130 137 140 136 143 122 117 122 119 115 106 105 100 90 79 63 63 72 78 72 82
350 333 316 322 317 323 349 14 97 127 156 178 191 201 201 200 189 185 190 194 193 195 191 189 186 184 176 169 157 146 156 165 151 140 130 127 121 111 124 136 129 124 125 128 128 127 124 126 129 130 120 102 106 107 100 84 84 85 84 86 89 78 80
343 332 333 323 294 242 127 120 138 152 165 183 195 201 207 203 193 192 191 198 207 211 202 198 191 179 165 160 160 156 151 153 147 146 141 135 132 129 136 156 140 130 127 128 130 132 121 127 124 126 126 116 105 97 108 90 80 89 91 81 74 76 74
336 332 326 332 350 18 106 126 134 128 155 190 204 210 214 213 186 205 211 197 228 237 226 215 203 171 150 147 149 155 151 150 149 142 132 132 134 134 137 154 130 119 127 141 138 131 127 128 130 124 113 114 105 103 87 93 93 93 90 86 77 78 63
333 333 341 357 2 19 31 35 48 80 115 172 211 242 44 62 163 182 134 150 242 272 284 283 247 165 141 148 163 160 141 138 137 133 133 134 135 136 139 142 136 125 131 127 132 130 130 131 130 121 106 120 117 111 117 84 72 68 67 82 97 82 75
334 339 343 346 358 31 45 47 48 54 57 49 50 62 82 99 85 123 150 129 113 75 268 316 344 103 113 119 121 135 134 131 134 135 134 132 136 137 135 134 146 131 133 151 136 132 136 139 145 143 128 124 134 117 76 69 63 70 95 116 108 120 95
335 332 334 344 3 39 49 55 52 54 56 60 66 75 81 92 111 69 54 74 95 118 34 130 130 144 142 159 163 152 142 135 135 133 131 133 139 133 136 159 156 152 156 148 135 139 142 146 157 158 148 142 105 86 92 115 118 341 85 3 90 102 154
336 322 326 342 11 41 53 57 58 55 54 61 67 71 82 72 68 73 75 62 34 38 54 126 316 19 164 153 141 141 130 125 125 128 127 134 144 145 159 156 162 162 163 149 141 149 151 156 162 161 148 121 111 107 101 130 181 119 198 271 38 166 214
323 317 320 342 18 48 55 61 65 65 63 65 69 65 64 69 80 90 95 70 39 52 83 73 64 62 87 104 117 119 120 123 123 122 133 139 140 151 154 157 159 166 162 144 149 154 157 160 156 148 126 118 119 116 113 155 210 133 144 145 127 153 199
330 324 338 349 28 51 60 67 69 63 53 59 79 119 120 107 102 109 112 123 142 134 84 74 97 102 102 107 109 114 122 123 132 137 140 146 155 155 158 159 158 163 155 145 149 158 161 145 143 132 131 130 124 118 109 142 274 224 162 128 125 124 191
319 329 330 341 3 39 61 68 69 72 70 67 54 67 66 77 74 96 92 101 128 104 90 91 94 97 99 107 115 119 119 121 128 133 137 144 148 153 160 153 148 158 148 145 154 164 133 126 131 128 133 147 160 136 109 187 219 229 309 32 99 110 161
318 329 333 336 358 37 53 65 74 69 87 115 102 69 69 89 95 74 86 111 119 105 100 109 103 104 110 108 109 115 116 126 128 132 140 151 148 159 158 140 150 148 146 153 156 160 142 141 152 153 150 165 154 120 117 213 235 202 178 131 81 73 111
307 334 335 333 350 9 56 71 79 90 75 87 77 54 39 65 75 80 89 100 110 119 122 120 116 116 115 116 116 116 126 131 143 144 148 152 156 158 141 144 146 144 149 155 157 159 145 140 154 168 153 167 144 144 171 184 141 139 158 139 111 100 109
328 343 326 326 335 355 36 67 81 80 91 80 80 71 31 43 71 81 99 112 117 120 120 121 123 124 123 124 125 128 135 143 142 145 148 152 154 147 138 139 142 142 145 143 156 160 153 153 162 161 145 132 134 150 187 118 102 107 138 127 125 130 113
271 300 314 314 314 338 20 61 84 95 89 98 97 114 101 68 82 92 99 101 106 112 121 129 126 127 127 123 122 129 137 144 132 133 143 144 139 133 132 137 135 138 143 150 152 155 145 132 135 138 134 133 150 171 138 131 143 134 140 168 135 120 138
246 254 265 278 300 357 19 70 95 111 108 107 108 112 99 89 99 102 103 102 104 109 118 124 126 127 128 131 136 139 140 138 140 138 141 138 142 135 135 135 136 135 134 132 135 127 126 128 131 144 152 158 186 171 160 192 194 176 178 185 150 155 137
236 242 249 262 280 81 83 91 102 112 110 115 109 110 105 100 103 103 102 108 111 112 121 121 122 124 129 132 133 134 135 132 138 142 131 143 130 134 135 133 127 122 119 123 125 132 135 132 145 159 179 184 177 179 196 205 212 207 203 159 152 144 144
227 228 238 245 265 154 118 115 114 115 116 118 109 109 114 115 113 111 111 116 114 114 116 116 120 122 121 126 129 132 136 136 134 134 138 133 142 137 137 122 121 123 127 123 127 134 130 151 182 184 190 174 160 199 206 203 211 194 184 151 167 158 150
222 225 229 237 244 238 132 144 134 127 120 119 112 122 124 123 115 112 121 120 114 114 112 110 110 111 114 123 131 135 135 136 137 135 140 144 137 140 122 127 120 131 131 143 148 138 148 167 156 175 173 165 172 188 205 201 187 171 178 172 159 163 144
229 224 228 238 233 220 117 134 131 131 134 121 125 123 114 115 110 115 117 112 110 111 111 110 105 110 115 122 128 133 136 137 138 143 142 141 139 130 133 131 145 146 146 133 135 135 131 127 134 137 152 170 178 177 183 181 173 174 186 180 165 155 145
219 213 214 220 224 195 138 140 137 133 136 130 140 131 117 112 118 116 111 112 109 112 115 114 113 109 117 122 125 128 135 137 141 141 140 139 138 136 138 139 131 148 149 148 147 148 149 158 146 156 155 177 180 158 182 205 202 177 194 187 195 205 139
218 208 212 210 212 176 159 151 149 146 137 139 136 131 121 128 131 123 119 111 115 117 118 120 116 116 120 128 136 140 143 143 142 141 140 141 140 142 141 141 152 154 157 141 149 141 134 112 131 155 179 177 167 170 197 237 255 240 225 217 223 225 151
206 212 211 212 186 137 150 138 137 143 138 138 144 145 142 137 129 123 124 122 122 123 126 123 123 127 132 135 141 145 148 146 143 143 146 144 143 149 151 147 152 149 144 140 155 158 151 165 173 190 173 176 172 193 203 236 240 227 225 224 226 238 175
234 224 219 202 111 115 123 125 125 135 139 144 146 144 141 142 132 131 132 131 131 129 128 129 129 133 136 142 148 149 149 150 148 147 145 148 154 159 160 149 143 162 157 154 160 159 171 167 178 188 190 180 195 197 204 228 238 224 220 225 227 220 215
217 215 207 194 161 133 132 135 137 136 136 141 145 145 144 139 138 135 140 141 141 138 136 137 136 138 144 149 149 148 148 149 148 147 150 157 161 156 155 163 168 164 152 156 153 156 150 160 174 197 205 206 200 214 212 236 240 225 221 228 231 227 216
197 198 201 158 110 121 127 132 132 137 147 155 154 148 145 143 140 142 144 150 142 143 149 154 151 139 131 136 137 140 141 148 148 152 157 160 154 159 161 157 149 150 154 156 147 147 154 161 168 179 200 195 198 222 233 235 254 238 231 232 240 232 214
187 179 172 156 144 136 134 147 151 155 157 149 149 152 149 147 143 147 148 147 151 162 161 145 129 127 129 130 130 135 141 146 154 157 164 162 163 162 155 160 156 151 148 148 141 131 137 136 139 119 167 163 180 183 192 206 242 277 242 236 243 250 237
117 104 90 124 139 141 137 141 135 133 136 144 153 158 154 150 147 145 148 153 169 168 133 134 132 127 129 134 138 141 143 144 141 150 152 153 142 148 158 159 155 158 153 143 143 140 149 154 128 172 170 114 44 21 306 291 268 263 287 246 249 251 226
143 145 146 142 145 155 149 143 147 150 149 152 159 162 159 150 145 148 150 166 170 141 137 134 133 134 136 136 141 146 144 146 148 145 145 152 159 151 154 153 151 146 140 143 143 147 152 160 144 139 119 87 324 305 285 285 306 308 294 288 259 251 241
128 132 141 149 152 155 156 143 144 143 146 148 155 159 160 155 148 151 159 167 142 136 128 128 132 135 140 142 145 141 145 152 150 146 148 149 146 143 138 151 150 143 153 155 155 154 156 159 147 130 141 181 250 299 293 281 295 289 284 272 264 258 248
151 152 151 154 154 154 154 157 155 148 142 151 158 159 161 160 151 154 160 156 139 142 138 131 136 142 146 147 149 150 148 142 142 146 147 150 144 141 142 132 143 145 144 148 156 163 165 178 167 172 187 188 218 247 268 278 275 279 279 275 270 264 262
128 134 134 135 138 149 148 136 138 145 144 147 156 152 158 155 154 158 160 145 145 142 139 138 141 145 152 152 152 152 147 137 134 136 144 149 158 158 161 157 162 163 161 175 182 182 186 180 180 192 194 207 219 231 246 267 287 277 281 281 279 280 278
151 155 157 156 152 142 140 144 146 155 157 152 156 151 156 149 151 145 139 150 145 139 144 144 150 150 149 156 155 151 153 150 149 142 138 140 132 133 145 155 160 161 165 178 186 194 201 198 192 194 199 212 228 236 243 258 265 272 276 276 271 271 279
157 152 156 146 144 144 146 154 152 155 156 158 156 155 155 150 148 144 146 144 146 143 145 149 155 153 156 156 160 160 163 157 163 153 150 156 158 153 144 146 159 174 183 180 187 189 202 200 204 206 202 214 220 235 247 254 256 256 260 266 263 267 263
168 159 149 154 159 160 166 160 154 162 164 163 161 158 158 156 156 154 152 153 151 150 150 155 159 151 147 155 162 167 168 162 162 151 159 161 174 194 189 177 180 198 217 227 191 186 189 197 210 210 210 208 210 216 238 243 252 255 236 241 242 246 275
162 161 163 163 160 163 162 163 160 162 169 169 165 163 164 159 161 164 160 157 155 156 157 157 152 149 161 166 175 161 158 160 170 167 170 172 185 186 223 229 211 202 197 220 215 219 217 191 204 211 207 213 226 209 217 235 242 251 253 248 255 264 258
163 167 167 161 158 165 171 169 164 161 170 170 168 169 170 165 166 168 168 164 161 165 163 158 157 161 169 175 174 173 167 173 175 175 178 182 179 180 198 223 241 226 233 245 242 219 222 225 232 236 218 205 238 239 232 247 260 267 269 270 268 266 273
172 167 162 166 170 171 172 170 172 177 181 167 170 174 171 171 173 173 171 168 166 171 164 168 165 172 179 186 184 184 180 178 175 168 176 183 180 181 191 202 230 260 245 232 239 250 236 230 237 240 238 236 234 244 261 242 243 248 255 259 263 269 270